Hourly Data Report for May 24, 2018

DRYDEN REGIONAL
ONTARIO
Current Station Operator: NAVCAN

49°49'39.000" N
92°44'39.000" W
412.70 m
6032125
71527
YHD

Download Data

Hourly Data (May 2018)
Hourly Data Report for May 24, 2018
TIME
LST
Temp Definition
°C
Dew Point Definition
°C
Rel Hum Definition
%
Precip. Amount Definition
mm

Wind Dir Definition
10's deg

Wind Spd Definition
km/h
Visibility Definition
km
Stn Press Definition
kPa
Hmdx Definition


Wind Chill Definition


Weather Definition


00:00 16.7 12.3 75 0.0 6 8 16.1 96.79     LegendNANA
01:00 17.5 11.3 67 0.0 13 8 16.1 96.78     LegendNANA
02:00 18.2 10.2 59 0.0 17 13 16.1 96.76     LegendNANA
03:00 17.4 11.0 66 0.0 17 11 16.1 96.73     LegendNANA
04:00 16.7 11.9 73 0.0 17 18 16.1 96.75     LegendNANA
05:00 17.2 13.0 76 0.0 17 13 16.1 96.72     LegendNANA
06:00 17.9 13.9 77 0.0 17 15 16.1 96.72     LegendNANA
07:00 19.3 14.5 73 0.0 16 13 16.1 96.69     LegendNANA
08:00 20.1 15.2 73 0.0 18 15 16.1 96.67     LegendNANA
09:00 22.6 16.1 66 0.0 18 17 16.1 96.64 27   LegendNANA
10:00 22.6 16.1 66 0.0 17 21 16.1 96.59 27   LegendNANA
11:00 23.3 16.2 64 0.0 19 18 16.1 96.51 28   LegendNANA
12:00 24.4 16.4 60 0.0 18 15 16.1 96.43 29   LegendNANA
13:00 26.3 15.9 52 0.0 18 24 16.1 96.33 31   LegendNANA
14:00 28.1 15.6 46 0.0 19 21 16.1 96.24 32   LegendNANA
15:00 26.7 14.3 46 0.0 20 24 16.1 96.23 30   LegendNANA
16:00 22.7 17.9 74 0.0 24 13 16.1 96.23 29   Rain
17:00 22.0 18.2 79 0.2 18 5 16.1 96.12 28   LegendNANA
18:00 22.0 17.9 77 0.0 19 9 16.1 96.10 28   LegendNANA
19:00 22.7 17.7 73 0.0 18 17 16.1 96.03 28   LegendNANA
20:00 22.2 16.6 70 0.0 19 11 16.1 95.98 27   LegendNANA
21:00 21.5 17.0 75 0.0 17 13 16.1 95.94 27   LegendNANA
22:00 20.7 17.4 81 0.0 16 15 16.1 95.86 26   LegendNANA
23:00 20.1 17.0 82 0.0 17 13 16.1 95.88 25   LegendNANA

Notes on Data Quality.

Legend

  • E = Estimated
  • M = Missing
  • NA = Not Available*
  • [empty] = Indicates an unobserved value
Date modified: